New Iberia, LA

10:54 PM CDT on July 23, 2017 (GMT -0500)
Acadiana Regional

Weather History for KARA - June, 2013

Change the Weather History Date:

Wednesday, June 26, 2013

  Actual Average Record
Temperature  
Mean Temperature 85 °F 82 °F  
Max Temperature 94 °F 91 °F 101 °F (2009)
Min Temperature 76 °F 72 °F 62 °F (1974)
Degree Days  
Heating Degree Days 0 0  
Month to date heating degree days 0 0  
Since 1 June heating degree days 0 0  
Since 1 July heating degree days 1150 1409  
Cooling Degree Days 20 17  
Month to date cooling degree days 482 404  
Year to date cooling degree days 1063 974  
Since 1 June cooling degree days 482 404  
Growing Degree Days 33 (Base 50)    
Moisture  
Dew Point 73 °F    
Average Humidity 73    
Maximum Humidity 94    
Minimum Humidity 52    
Precipitation  
Precipitation 0.00 in 0.19 in 1.90 in (1999)
Month to date precipitation 6.13 6.10  
Year to date precipitation 41.50 28.33  
Sea Level Pressure  
Sea Level Pressure 30.01 in    
Wind  
Wind Speed 4 mph (SSW)    
Max Wind Speed 12 mph    
Max Gust Speed 17 mph    
Visibility 10 miles    
Events      
T = Trace of Precipitation, MM = Missing Value Source: NWS Daily Summary

Daily Weather History Graph

Daily Weather History Graph

Search for Another Location

Airport or City:

Trip Planner

Search our weather history database for the weather conditions in past years. The results will help you decide how hot, cold, wet, or windy it might be!

Date:

Astronomy

Jun. 26, 2013 Rise Set
Actual Time 6:08 AM CDT 8:12 PM CDT
Civil Twilight 5:40 AM CDT 8:40 PM CDT
Nautical Twilight 5:07 AM CDT 9:13 PM CDT
Astronomical Twilight 4:31 AM CDT 9:49 PM CDT
Moon 10:55 PM CDT (6/26) 9:43 AM CDT (6/26)
Length of Visible Light 14h 59m
Length of Day
14h 04m
Waning Gibbous, 85% of the Moon is Illuminated
Jun 26
Waning Gibbous
Jun 29
Last Quarter
Jul 8
New
Jul 15
First Quarter
Jul 22
Full

Hourly Weather History & Observations

Time (CDT) Temp. Heat Index Dew Point Humidity Pressure Visibility Wind Dir Wind Speed Gust Speed Precip Events Conditions
12:53 AM 77.0 °F - 73.0 °F 88% 30.01 in 10.0 mi SSE 4.6 mph - N/A   Clear
1:53 AM 75.9 °F - 72.0 °F 87% 30.01 in 10.0 mi SE 3.5 mph - N/A   Clear
2:53 AM 75.9 °F - 72.0 °F 87% 29.99 in 10.0 mi Calm Calm - N/A   Clear
3:53 AM 75.9 °F - 72.0 °F 87% 29.99 in 10.0 mi Calm Calm - N/A   Clear
4:53 AM 75.9 °F - 73.0 °F 91% 30.00 in 10.0 mi Calm Calm - N/A   Clear
5:53 AM 75.9 °F - 73.0 °F 91% 30.01 in 10.0 mi Calm Calm - N/A   Clear
6:53 AM 77.0 °F - 73.9 °F 90% 30.02 in 10.0 mi Calm Calm - N/A   Clear
7:53 AM 82.0 °F 89.4 °F 75.9 °F 82% 30.04 in 10.0 mi Calm Calm - N/A   Clear
8:53 AM 86.0 °F 96.0 °F 75.9 °F 72% 30.05 in 10.0 mi SSW 4.6 mph - N/A   Clear
9:53 AM 88.0 °F 95.6 °F 73.0 °F 61% 30.06 in - Variable 5.8 mph - N/A   Scattered Clouds
10:53 AM 89.1 °F 97.0 °F 73.0 °F 59% 30.06 in - Calm Calm - N/A   Partly Cloudy
11:53 AM 91.0 °F 97.6 °F 71.1 °F 52% 30.05 in - SW 3.5 mph - N/A   Partly Cloudy
12:53 PM 91.9 °F 98.4 °F 71.1 °F 50% 30.05 in - West 4.6 mph - N/A   Partly Cloudy
1:53 PM 91.9 °F 100.7 °F 73.0 °F 54% 30.03 in - West 4.6 mph - N/A   Scattered Clouds
2:53 PM 91.9 °F 101.3 °F 73.9 °F 55% 30.01 in 10.0 mi South 9.2 mph - N/A   Overcast
3:53 PM 91.0 °F 101.6 °F 75.0 °F 59% 30.00 in 10.0 mi South 6.9 mph - N/A   Clear
4:53 PM 91.9 °F 100.7 °F 73.0 °F 54% 29.99 in 10.0 mi SW 8.1 mph - N/A   Clear
5:53 PM 90.0 °F 96.9 °F 72.0 °F 55% 29.97 in 10.0 mi South 9.2 mph - N/A   Clear
6:53 PM 89.1 °F 96.0 °F 72.0 °F 57% 29.97 in 10.0 mi South 8.1 mph - N/A   Clear
7:53 PM 86.0 °F 93.0 °F 73.0 °F 65% 29.97 in 10.0 mi SSW 5.8 mph - N/A   Clear
8:53 PM 82.0 °F 87.4 °F 73.0 °F 74% 29.97 in 10.0 mi SSW 4.6 mph - N/A   Clear
9:53 PM 80.1 °F 84.5 °F 73.9 °F 81% 29.99 in 10.0 mi SSW 3.5 mph - N/A   Clear
10:53 PM 80.1 °F 84.5 °F 73.9 °F 81% 30.01 in 10.0 mi SW 3.5 mph - N/A   Clear
11:53 PM 79.0 °F - 73.9 °F 84% 30.01 in 10.0 mi Calm Calm - N/A   Clear